Location: Goettingen
(51.5300°N, 9.9433°E)
Time: 13:25:51
(UTC+02:00)

ISS - Visible Passes

Search period start: 21 September 2018 00:00
Search period end: 01 October 2018 00:00
Orbit: 403 x 408 km, 51.6° (Epoch: 21 September)

Date Brightness Start Highest point End Pass type
(mag) Time Alt. Az. Time Alt. Az. Time Alt. Az.
22 Sep -1.6 20:27:58 10° SSE 20:28:51 12° SSE 20:28:51 12° SSE visible
23 Sep -2.3 21:10:31 10° SW 21:12:20 24° S 21:12:20 24° S visible
24 Sep -2.4 20:19:11 10° SSW 20:21:47 22° SE 20:22:55 18° ESE visible
24 Sep -1.3 21:54:38 10° WSW 21:55:36 18° WSW 21:55:36 18° WSW visible
25 Sep -3.6 21:02:53 10° SW 21:06:00 52° SSE 21:06:00 52° SSE visible
26 Sep -3.1 20:11:12 10° SW 20:14:17 37° SSE 20:16:18 18° E visible
26 Sep -1.9 21:47:19 10° W 21:48:58 27° W 21:48:58 27° W visible
27 Sep -3.9 20:55:25 10° WSW 20:58:44 76° SSE 20:59:10 62° ESE visible
28 Sep -3.7 20:03:35 10° WSW 20:06:50 59° SSE 20:09:17 16° E visible
28 Sep -2.1 21:40:01 10° W 21:41:57 33° W 21:41:57 33° W visible
29 Sep -3.9 20:48:03 10° W 20:51:22 88° N 20:52:00 55° E visible
29 Sep -0.4 22:24:35 10° W 22:24:40 11° W 22:24:40 11° W visible
30 Sep -3.8 19:56:06 10° WSW 19:59:25 82° SSE 20:02:01 15° E visible
30 Sep -2.3 21:32:38 10° W 21:34:41 35° W 21:34:41 35° W visible
